Flag for US Virgin Islands Weather past 2 weeks in Christiansted, US Virgin Islands

Now
74 °F

Passing clouds.


Feels Like: 71 °F
Forecast: 78 / 85 °F
Wind: 5 mph from North

Location: Christiansted / Henry E. Rohlsen Airport - Saint Croix

Current Time: Aug 29, 2014 at 4:23:10 AM

Latest Report: Aug 29, 2014 at 3:53 AM


Visibility: 10 mi

Pressure: 29.98 "Hg

Humidity: 94%

Dew point: 72 °F

Location of ChristianstedLocation

Historic Weather in Christiansted — Graph

°F

Christiansted temperature yesterday

Maximum temperature yesterday: 88 °F (at 1:53 PM)
Minimum temperature yesterday: 75 °F (at 10:22 PM)
Average temperature yesterday: 81 °F

Past Weeks' High & Low Weather Summary

 TemperatureHumidityPressure
High90 °F (Aug 14, 11:53 AM)100% (Aug 22, 10:16 AM)30.07 "Hg (Aug 22, 10:16 AM)
Low73 °F (Aug 29, 1:53 AM)54% (Aug 14, 11:53 AM)29.82 "Hg (Aug 22, 4:53 AM)
Average83 °F79%29.97 "Hg
* Reported Aug 14 2:53 AM — Aug 29 1:53 AM, Christiansted, Weather by CustomWeather, © 2014

Note: Actual official high and low records may vary slightly from our data, if they occured in-between our weather recording intervals... More about our weather records

Advertising

Christiansted weather history for previous 24 hours

 ConditionsComfort  
Time TempWeatherWind HumidityBarometerVisibility
1:53 AM
Aug 29
73 °FLight rain. Partly cloudy.5 mph97%30.01 "Hg10 mi
11:53 PM
Aug 28
76 °FMostly cloudy.6 mph88%30.05 "Hg10 mi
10:40 PM75 °FRain. Fog.5 mph94%30.05 "Hg3 mi
10:22 PM75 °FHeavy rain. Fog.6 mph94%30.06 "Hg2 mi
9:53 PM76 °FMostly cloudy.6 mph91%30.04 "Hg10 mi
9:32 PM77 °FHeavy rain. Fog.5 mph94%30.05 "Hg3 mi
8:53 PM78 °FPassing clouds.No wind90%30.02 "Hg10 mi
6:53 PM83 °FPassing clouds.7 mph72%29.98 "Hg10 mi
5:53 PM84 °FScattered clouds.9 mph72%29.98 "Hg10 mi
4:53 PM85 °FScattered clouds.10 mph70%29.97 "Hg10 mi
3:53 PM85 °FScattered clouds.14 mph72%29.95 "Hg10 mi
1:53 PM88 °FSunny.16 mph67%29.97 "Hg10 mi
11:53 AM87 °FScattered clouds.18 mph69%29.99 "Hg10 mi
8:53 AM85 °FScattered clouds.16 mph72%30.00 "Hg10 mi
8:35 AM82 °FScattered clouds.17 mph79%29.99 "Hg10 mi
6:53 AM82 °FScattered clouds.15 mph77%29.96 "Hg10 mi
5:53 AM81 °FClear.18 mph77%29.95 "Hg10 mi
4:53 AM81 °FPassing clouds.17 mph77%29.93 "Hg10 mi
Weather by CustomWeather, © 2014

See weather overviewHow to use our weather pages